This is the latest recevied weather packets stored in our database for station/object KD0MAC. If no packets are shown the sender has not sent any weather packets the latest 10 day(s).
| Time | Temp. | Humidity | Pressure | Rain* | Wind** | Luminosity | Snow |
|---|---|---|---|---|---|---|---|
| 1777219341 | 6.11° C | 97% | 1010.2 hPa | 0 mm | - | 106 W/m² | - |
| 1777219042 | 6.11° C | 97% | 1010.5 hPa | 0 mm | - | 59 W/m² | - |
| 1777218740 | 6.11° C | 97% | 1010.2 hPa | 0 mm | - | 79 W/m² | - |
| 1777218440 | 6.11° C | 97% | 1009.8 hPa | 0 mm | - | 84 W/m² | - |
| 1777218140 | 6.11° C | 97% | 1009.5 hPa | 0 mm | - | 113 W/m² | - |
| 1777217842 | 6.11° C | 98% | 1009.5 hPa | 0 mm | - | 85 W/m² | - |
| 1777217540 | 6.11° C | 98% | 1009.5 hPa | 0 mm | - | 150 W/m² | - |
| 1777217241 | 6.11° C | 97% | 1009.5 hPa | 0 mm | - | 103 W/m² | - |
| 1777216941 | 6.11° C | 98% | 1009.5 hPa | 0 mm | - | 74 W/m² | - |
| 1777216641 | 6.11° C | 98% | 1009.8 hPa | 0 mm | - | 55 W/m² | - |
| 1777216342 | 6.11° C | 98% | 1009.5 hPa | 0 mm | - | 115 W/m² | - |
| 1777216041 | 5.56° C | 97% | 1009.5 hPa | 0 mm | - | 165 W/m² | - |
| 1777215741 | 5.56° C | 97% | 1009.5 hPa | 0 mm | - | 39 W/m² | - |
| 1777215440 | 5.56° C | 97% | 1009.8 hPa | 0 mm | - | 45 W/m² | - |
| 1777215141 | 5.56° C | 97% | 1009.8 hPa | 0 mm | - | 60 W/m² | - |
| 1777214841 | 5.56° C | 97% | 1010.2 hPa | 0 mm | - | 20 W/m² | - |
| 1777214540 | 5.56° C | 97% | 1010.2 hPa | 0 mm | - | 20 W/m² | - |
| 1777214241 | 5.56° C | 97% | 1010.2 hPa | 0 mm | - | 23 W/m² | - |
| 1777213940 | 5.56° C | 97% | 1009.8 hPa | 0 mm | - | 24 W/m² | - |
| 1777213641 | 5° C | 97% | 1009.8 hPa | 0 mm | - | 21 W/m² | - |
| 1777213341 | 5.56° C | 97% | 1010.2 hPa | 0 mm | - | 26 W/m² | - |
| 1777213041 | 5° C | 97% | 1009.5 hPa | 0 mm | - | 30 W/m² | - |
| 1777212740 | 5° C | 97% | 1009.5 hPa | 0 mm | - | 30 W/m² | - |
| 1777212441 | 5° C | 97% | 1009.5 hPa | 0 mm | - | 28 W/m² | - |
| 1777212140 | 5° C | 97% | 1009.8 hPa | 0 mm | - | 23 W/m² | - |
* Rain latest hour (hover to see other rain measurements)
** Current wind speed in m/s (hover to see current wind gust speed)